Regional Weather Roundup
Issued by NWS Grand Forks, ND

Home | Current Version | Previous Version | Graphics & Text | Print | Product List | Glossary On
Versions: 1 2 3 4 5 6 7 8 9 10 11 12 13 14 15 16 17 18 19 20 21 22 23 24 25 26 27 28 29 30 31 32 33 34 35 36 37 38 39 40 41 42 43 44 45 46 47 48 49 50
000
ASUS43 KFGF 271510
RWRFGF
PRAIRIE TO PINES  WEATHER ROUNDUP
NATIONAL WEATHER SERVICE EASTERN NORTH DAKOTA/GRAND FORKS ND
1000 AM CDT FRI MAR 27 2015

 **SATELLITE DATA USED TO AUGMENT SKY COVER AT AUTOMATED STATIONS**
 *****  WEATHER ACROSS EASTERN NORTH DAKOTA  *****

CITY           SKY/WX    TMP DP  RH WIND       PRES   REMARKS
GRAND FORKS    CLOUDY    25  15  66 S13       30.20F WCI  14
GRAND FRKS AFB CLOUDY    26  15  63 S9        30.19F WCI  16
GRAND FRKS NWS   N/A     25 N/A N/A S12         N/A  WCI  14
DEVILS LAKE    CLOUDY    25  18  74 S14       30.10F WCI  13
FARGO          MOSUNNY   25  11  55 S12       30.23F WCI  14
WAHPETON ARPT  MOSUNNY   25  12  58 S8        30.25F WCI  16
$$

 ***** WEATHER ACROSS CENTRAL AND WESTERN NORTH DAKOTA  *****

CITY           SKY/WX    TMP DP  RH WIND       PRES   REMARKS
BISMARCK       LGT SNOW  26  21  81 S13       30.09F WCI  15
MINOT          FLURRIES  30  24  78 S17G28    29.95F WCI  18
JAMESTOWN      CLOUDY    26  16  65 S14       30.14F WCI  14
MINOT AFB      CLOUDY    29  29  99 S16       29.95F FOG     WCI  18
GARRISON         N/A     28  25  88 S12       30.00F WCI  18
WILLISTON      CLOUDY    37  31  78 S5        29.93S
DICKINSON      PTSUNNY   37  31  78 S15       29.92F
HETTINGER      CLOUDY    35  29  78 S12       29.99F
$$

 *****  OTHER AIRPORT OBSERVATIONS IN OUR AREA  *****

CITY           SKY/WX    TMP DP  RH WIND       PRES   REMARKS
WALHALLA         N/A     27  21  80 S9        30.15F WCI  17
GRAFTON AIRPOR NOT AVBL
VALLEY CITY AR MIX PCPN  25  21  86 S12       30.17F WCI  14
CANDO          NOT AVBL
CAVALIER APRT  FAIR      25  18  74 S13       30.17F WCI  13
GWINNER        SUNNY     28  19  69 S14         N/A  WCI  17
SHEYENNE NWR     N/A     24  17  74 S7        29.95S WCI  16
ROLLA          FAIR      25  23  93 S17       30.04F WCI  11
 ***** THE ABOVE OBSERVATIONS ARE NON NWS ARE NOT QUALITY
       CONTROLLED AND MAY MIS-REPORT RAIN FOR SNOW...
$$

  *****  WEATHER ACROSS NORTHERN MINNESOTA  *****

CITY           SKY/WX    TMP DP  RH WIND       PRES   REMARKS
FLAG ISLAND    SUNNY     12   7  79 SE8       30.21F WCI   1
WARROAD        SUNNY     25  10  54 S7        30.21F WCI  17
ROSEAU         MOSUNNY   25  10  54 S13       30.20F WCI  13
HALLOCK        PTSUNNY   23  14  68 S12       30.19F WCI  12
THF RVR FALLS  MOSUNNY   25   7  46 S15       30.21F WCI  12
BAUDETTE       SUNNY     21   7  54 S9        30.22F WCI  11
WASKISH        SUNNY     25   7  46 S7        30.23F WCI  17
CROOKSTON      PTSUNNY   25  16  68 SW10      30.23F WCI  15
STEPHEN NDAWN    N/A     21  12  68 S10         N/A  WCI  10
GREENBUSH NDAW   N/A     25  12  58 SW12        N/A  WCI  14
$$
  *****  WEATHER ACROSS CENTRAL AND WEST MINNESOTA  *****

CITY           SKY/WX    TMP DP  RH WIND       PRES   REMARKS
FOSSTON        MOSUNNY   23   5  46 S12       30.22F WCI  12
BEMIDJI        SUNNY     22   5  48 S8        30.22F WCI  13
PARK RAPIDS    SUNNY     22   4  46 S8        30.22F WCI  12
ELBOW LAKE     FAIR      24  12  58 S9        30.25F WCI  15
WADENA         SUNNY     21   7  53 S6        30.24R WCI  14
DETROIT LAKES  MOSUNNY   23  12  63 S6        30.23F WCI  16
MOORHEAD       MOSUNNY   25  12  58 S9        30.24F WCI  15
FERGUS FALLS   SUNNY     25   5  42 S9        30.27F WCI  15
MORRIS MN      MOSUNNY   25  10  54 SE7       30.25F WCI  17
STAPLES        SUNNY     21   3  45 CALM      30.24F
$$
  *****  WEATHER ELSEWHERE ACROSS MINNESOTA  *****

CITY           SKY/WX    TMP DP  RH WIND       PRES   REMARKS
DULUTH         MOSUNNY   21   0  39 CALM      30.24R
INTRNTL FALLS  SUNNY     19   7  59 SW7       30.24F WCI  10
ELY            SUNNY     16   3  57 CALM      30.23F
CLOQUET        SUNNY     19   1  45 CALM      30.24S
WHEATON        PTSUNNY   23  14  68 S6        30.27F WCI  16
BRAINERD       SUNNY     21   3  45 SE3       30.26S
HIBBING        SUNNY     19   3  49 VRB3      30.24F
ALEXANDRIA     SUNNY     24   6  46 S8        30.24S WCI  15
SAINT CLOUD    SUNNY     23   3  42 SE3       30.27F
MINNEAPOLIS    SUNNY     25   4  40 CALM      30.28S
$$

  *****  WEATHER ACROSS SOUTH DAKOTA  *****

CITY           SKY/WX    TMP DP  RH WIND       PRES   REMARKS
SIOUX FALLS    CLOUDY    25  15  66 CALM      30.26F
BROOKINGS      NOT AVBL
WATERTOWN      CLOUDY    23  15  71 S9        30.20F WCI  13
HURON          CLOUDY    25  15  66 S10       30.23F WCI  15
SISSETON         N/A     25  15  66 S8        30.23F WCI  16
ABERDEEN       CLOUDY    26  15  63 S14       30.21F WCI  14
MITCHELL       PTSUNNY   26  16  65 S9        30.26F WCI  17
PIERRE         CLOUDY    29  21  72 SE14      30.12F WCI  18
MOBRIDGE       LGT SNOW  27  21  78 S16       30.09F WCI  15
RAPID CITY     MOSUNNY   39  33  79 S3        30.01F
$$

  *****  SOME WEATHER IN NEARBY STATES *****

CITY           SKY/WX    TMP DP  RH WIND       PRES   REMARKS
GLASGOW MT     SUNNY     41  33  73 W7        29.97R
GREAT FALLS MT MOSUNNY   55  35  47 SW8       30.05S
CHEYENNE WY    PTSUNNY   50  28  42 NW18G26   30.19R
SCOTTSBLUFF NE CLOUDY    42  37  82 W7G22     30.13F
OMAHA NE       PTSUNNY   28  20  71 N8        30.30F WCI  20
DES MOINES IA  MOSUNNY   33  15  47 N9        30.27S
DAVENPORT IA   SUNNY     28   7  41 N16       30.24R WCI  16
CHICAGO IL     MOSUNNY   24  10  55 N17       30.15S WCI  11
EAU CLAIRE WI  SUNNY     25   7  46 NE10      30.26S WCI  15
LA CROSSE WI   SUNNY     27  10  49 NE8       30.28R WCI  19
$$

  *****  SOME NATIONAL WEATHER *****

CITY           SKY/WX    TMP DP  RH WIND       PRES   REMARKS
LA GUARDIA NY  CLOUDY    42  34  73 VRB5      29.75F
RALEIGH NC     LGT RAIN  47  44  90 NE13G18   29.78R FOG
ATLANTA GA     CLOUDY    47  38  71 NW18G25   29.84R
NEW ORLEANS LA MOSUNNY   55  43  63 N16       30.08R
OKLAHOMA CITY  PTSUNNY   46  36  68 N15G24    30.22R
ALBUQUERQUE NM MOSUNNY   51  22  31 W3        30.32S
SALT LAKE CITY SUNNY     47  33  58 SE8       30.33R
LOS ANGELES CA MOSUNNY   65  48  54 E5        30.07R
BOISE ID       SUNNY     50  40  68 E3        30.23R
SEATTLE WA     FOG       49  47  93 SE5       30.04S VSB 1/2
$$

*** WEATHER ACROSS MANITOBA...SASKATCHEWAN AND ONTARIO ***
                ***ONTARIO***

CITY           SKY/WX    TMP DP  RH WIND       PRES   REMARKS
GERALDTON      MOSUNNY    9  -8  47 NW7       30.23S WCI  -3
THUNDER BAY    SUNNY     14   0  52 VRB3      30.31F
SIOUX LOOKOUT  SUNNY     12   1  62 SW6       30.23S WCI   3
TORONTO        NOT AVBL
BIG TROUT LK   SUNNY      7  -6  56 SW3       30.15F
PICKLE LAKE    SUNNY     14  -2  48 W8        30.19S WCI   3
DRYDEN         SUNNY     14   5  67 SW9       30.22S WCI   2
KENORA         MOSUNNY   18   3  53 SW10G17   30.20F WCI   6
$$
                *** MANITOBA***

CITY           SKY/WX    TMP DP  RH WIND       PRES   REMARKS
BRANDON        LGT SNOW  27  23  86 SE10      30.03F VSB 1   WCI  17
DAUPHIN        LGT SNOW  27  25  93 E7        30.00F WCI  19
ISLAND LAKE    SUNNY     12  -2  52 S3        30.16S
PILOT MOUND      N/A     25  19  80 S17G23      N/A  WCI  11
THE PAS        PTSUNNY   25  19  80 SE9       30.01S WCI  15
THOMPSON       MOSUNNY   16   1  53 S5        30.06F WCI   9
WINNIPEG       CLOUDY    23   9  54 S14       30.18F WCI  11
LYNN LAKE      SUNNY     21  14  73 SW5       29.98F WCI  15
CHURCHILL      SUNNY     10  -4  52 SW7       29.96F WCI   0
GILLAM         SUNNY     14   1  57 SW8       30.07F WCI   3
$$
                ***SASKATCHEWAN***

CITY           SKY/WX    TMP DP  RH WIND       PRES   REMARKS
ESTEVAN        NOT AVBL
KINDERSLEY     MOSUNNY   37  34  87 SW6       29.90S
LLOYDMINSTER   PTSUNNY   37  32  81 W5        29.89S
PRINCE ALBERT  CLOUDY    34  32  93 W2        29.89R FOG
REGINA         CLOUDY    34  32  93 CALM      29.89S
YORKTON        FLURRIES  28  27  93 SE8       29.90S WCI  20
N. BATTLEFORD  CLOUDY    37  34  87 NW7       29.92R
LA RONGE       FLURRIES  30  28  93 E5        29.94R
SASKATOON      PTSUNNY   37  34  87 VRB2      29.90R
SWIFT CURRENT  SUNNY     46  39  76 SW10      29.90F
$$
NOTE: THESE ARE AUTOMATED STATIONS WITH LIMITED QUALITY CONTROL
      "FAIR" INDICATES FEW OR NO CLOUDS BELOW 12,000 FEET WITH NO
      SIGNIFICANT WEATHER AND/OR OBSTRUCTIONS TO VISIBILITY.
      SKY/WX - SKY CONDITION AND SIGNIFICANT WEATHER.
      TMP - AIR TEMPERATURE.    DP   - DEWPOINT TEMPERATURE.
      RH  - RELATIVE HUMIDITY.  PRES - PRESSURE.
      HX  - HEAT INDEX.         WCI  - WIND CHILL INDEX.
$


USA.gov is the U.S. government's official web portal to all federal, state and local government web resources and services.